This is the latest recevied weather packets stored in our database for station/object K4AGR-13. If no packets are shown the sender has not sent any weather packets the latest 10 day(s).
| Time | Temp. | Humidity | Pressure | Rain* | Wind** | Luminosity | Snow |
|---|---|---|---|---|---|---|---|
| 1777702449 | 13.89° C | 97% | 1012.1 hPa | 8.89 mm | - | 0 W/m² | - |
| 1777702144 | 13.89° C | 97% | 1011.8 hPa | 4.83 mm | - | 0 W/m² | - |
| 1777701839 | 13.89° C | 97% | 1011.8 hPa | 1.78 mm | - | 0 W/m² | - |
| 1777701537 | 13.89° C | 97% | 1011.9 hPa | 1.27 mm | - | 0 W/m² | - |
| 1777701234 | 13.89° C | 97% | 1011.9 hPa | 3.05 mm | - | 0 W/m² | - |
| 1777700934 | 13.89° C | 97% | 1012.4 hPa | 4.32 mm | - | 0 W/m² | - |
| 1777700631 | 13.89° C | 97% | 1012 hPa | 4.83 mm | - | 0 W/m² | - |
| 1777700329 | 13.89° C | 97% | 1012.1 hPa | 4.32 mm | - | 0 W/m² | - |
| 1777700026 | 13.89° C | 97% | 1012 hPa | 4.32 mm | - | 0 W/m² | - |
| 1777699723 | 13.89° C | 97% | 1012.4 hPa | 9.65 mm | - | 0 W/m² | - |
| 1777699421 | 13.89° C | 97% | 1012.1 hPa | 10.67 mm | - | 0 W/m² | - |
| 1777699119 | 13.89° C | 96% | 1013.2 hPa | 6.1 mm | - | 0 W/m² | - |
| 1777698817 | 13.89° C | 96% | 1013.2 hPa | 1.78 mm | - | 0 W/m² | - |
| 1777698513 | 13.89° C | 96% | 1012.8 hPa | 3.05 mm | - | 0 W/m² | - |
| 1777698210 | 13.89° C | 96% | 1013 hPa | 3.05 mm | - | 0 W/m² | - |
| 1777697907 | 13.89° C | 96% | 1012.8 hPa | 4.83 mm | - | 0 W/m² | - |
| 1777697603 | 13.89° C | 96% | 1012.7 hPa | 7.11 mm | - | 0 W/m² | - |
| 1777697301 | 13.89° C | 96% | 1013.8 hPa | 8.89 mm | - | 0 W/m² | - |
| 1777696997 | 13.89° C | 96% | 1013.6 hPa | 7.87 mm | - | 0 W/m² | - |
| 1777696694 | 13.89° C | 96% | 1013.2 hPa | 7.87 mm | - | 0 W/m² | - |
| 1777696391 | 13.89° C | 96% | 1013.6 hPa | 6.1 mm | - | 0 W/m² | - |
| 1777696091 | 13.89° C | 96% | 1013.1 hPa | 4.32 mm | - | 0 W/m² | - |
| 1777695789 | 13.89° C | 96% | 1013.7 hPa | 4.83 mm | - | 0 W/m² | - |
| 1777695486 | 13.89° C | 96% | 1012.9 hPa | 7.87 mm | - | 0 W/m² | - |
| 1777695183 | 13.89° C | 96% | 1012.7 hPa | 7.11 mm | - | 0 W/m² | - |
* Rain latest hour (hover to see other rain measurements)
** Current wind speed in m/s (hover to see current wind gust speed)